Location: Capannuccia
(43.7000°N, 11.3000°E)
Time: 11:20:28
(UTC+00:00)

STARLINK-80 - Pass Details

Date: 07 June 2020
Orbit: 487 x 491 km, 53.0° (Epoch: 02 July)

Event Time Altitude Azimuth Distance (km) Brightness Sun altitude
Exits shadow 00:21:02 58° 291° (WNW) 575 3.6 -21.7°
Maximum altitude 00:21:26 64° 328° (NNW) 548 3.7 -21.7°
Drops below altitude 10° 00:25:14 10° 51° (NE) 1,687 6.9 -21.5°
Sets 00:27:26 0° 54° (NE) 2,571 7.9 -21.4°
